Showing default

YAOGAN-31 G, 47691

Orbit data source: Space-Track

YAOGAN-31 G, 47691 is a payload satellite owned by PLA SSF (CN) in LEO that was launched on Wed, 24 Feb 2021 UTC via a CHANG ZHENG 4C launch vehicle from the Jiuquan Satellite Launch Center, China (JSC). Payload-class satellites include a variety of spacecraft equipped with specific instruments for various scientific and technological missions. These include communications satellites like Starlink; space stations such as the ISS; scientific satellites like the Hubble; Earth observation satellites from companies like Planet Labs, Umbra, and HawkEye 360; GPS; miniature CubeSats for education and research; and military/defense satellites.

Loading next visibility...
Identifier
47691, 2021-014A
Orbit
LEO
Country
Flag of CNCN / PRC
Related business
Manufacturer
DFH
Mission
Operational Defense Sigint
Bus & Motor
JB-8B, Unknown motor
Mass
~500 kg wet, ~500 kg dry
Launch date (UTC)
2021-02-24 (5 years ago)
Launch vehicle
CHANG ZHENG 4C
Launch site
Jiuquan Satellite Launch Center, China (JSC)
Object type
Payload
Rocket body
Debris
Shape & HBR
Box + 2 Pan, 0.5 m
Radar Cross Section
0.446 m², Large (>1 m²)

Expand to show TLE details & history
Last TLE update: 23 hours ago

TLE from 23 hours ago
0 YAOGAN-31 G
1 47691U 21014A   26172.55113590 -.00000074  00000-0  24470-4 0  9995
2 47691  63.4015 186.6340 0177522   0.6021 359.5187 13.45449881261362
Epoch: 2026-06-21T13:13Z
TLE epoch observation values (Epoch: 2026-06-21T13:13:38.141Z)
Latitude
-0.00001°
Longitude
78.47529°
Altitude
958.246 km
Speed
7.438 km/s
True Right ascension
12h 26m 32s
True Declination
0° 00' 00"
Sunlit
Object was in daylight at epoch
Visualization orbit readout
Latitude
Unknown
Longitude
Unknown
Altitude
Unknown
Speed
Unknown
Apparent Right ascension
Unknown
Apparent Declination
Unknown
Sunlit
N/A
Visualization observer readout
Local Sidereal Time
23:09:15
Azimuth
Unknown
Elevation
Unknown
Doppler factor
Unknown
Orbital elements
Apogee altitude
1,220.413 km
Perigee altitude
955.337 km
Semi-major axis
7,466.012 km
Eccentricity
0.01775
Inclination
63.4015°
RAAN
186.634°
Arg. of periapsis
0.6021°
True anomaly
359.50122°
Mean anomaly
359.5187°
Eccentric anomaly
359.51°
Mean motion
3.36442 °/min
Orbital period
107 mins
BSTAR
0.00002447
Loading maneuver chart data...
Computing Atmospheric mass density...
Loading historical data...
Loading historical data...
Loading historical data...
Loading historical data...
Loading historical data...
Loading historical data...
Loading historical data...

Documentation

Showing up to 5 results
|